Wind_Speed
21 21 24 23 23 23 20 21 21 19 16 13 15 21 22 18 15 14 13 14 17 17 16 18 16 16 15 17 17 17 17 16 14 14 13 11 16 25
24 19 19 19 20 19 18 18 21 21 19 16 16 18 21 17 17 17 17 16 16 16 17 16 16 18 14 16 20 18 15 15 14 12 12 12 15 17
21 20 22 22 20 19 19 20 21 21 22 23 23 23 22 24 23 22 19 17 15 16 16 16 14 14 14 19 17 15 14 14 13 10 10 11 14 13
24 24 22 21 20 20 21 21 21 20 20 20 20 21 22 25 20 17 17 15 14 15 16 15 15 14 16 20 16 12 12 10 11 9 4 6 8 8
24 22 21 22 21 21 22 22 21 21 21 21 22 21 22 19 17 18 19 18 17 15 16 17 15 14 17 18 13 12 11 10 10 9 5 6 7 3
25 24 22 22 21 22 21 20 19 19 19 22 22 20 20 18 18 20 20 19 17 17 16 16 15 15 16 17 13 13 12 11 11 10 11 7 5 6
24 24 24 23 22 22 22 22 22 22 22 22 23 19 20 20 19 18 17 17 17 17 16 16 15 16 18 14 13 12 12 11 11 11 13 13 8 7
24 24 24 23 24 24 24 24 23 22 22 22 21 22 19 18 18 17 17 17 17 16 15 16 16 17 14 12 11 11 11 10 10 11 13 16 15 12
24 24 25 24 25 24 24 23 24 22 18 15 20 19 19 17 18 18 17 15 14 12 10 13 14 12 11 11 10 9 9 8 9 11 12 14 17 17
26 26 26 25 24 24 24 22 21 19 17 17 17 19 20 18 17 15 11 12 13 14 14 15 14 10 10 10 9 8 7 6 6 9 11 12 13 15
28 28 27 27 25 24 22 18 19 20 18 16 17 18 19 19 16 17 17 17 17 16 17 16 12 11 10 9 8 7 7 7 5 6 6 9 11 12
30 28 26 25 26 21 20 20 22 18 16 18 20 19 21 21 18 18 17 18 17 13 15 16 14 9 8 11 10 9 8 8 8 7 7 7 7 8
30 30 26 25 24 21 22 21 20 17 19 19 20 17 16 18 16 19 20 22 19 17 9 15 14 14 10 3 12 11 10 9 9 9 9 8 7 7
31 28 27 25 23 22 22 19 21 22 21 18 19 17 16 15 15 15 17 16 13 16 15 11 13 12 14 11 5 11 11 11 11 10 10 9 9 8
32 29 27 26 22 22 21 23 25 24 22 22 21 19 16 16 13 16 19 16 16 16 16 15 12 12 13 13 10 8 9 11 12 11 12 12 11 10
30 28 26 25 22 22 23 27 28 26 24 23 20 19 19 17 15 17 16 15 15 16 16 15 14 14 11 11 12 11 9 7 9 11 11 12 11 11
32 31 27 27 25 24 25 28 29 27 24 24 23 24 21 18 18 18 17 16 17 17 17 16 14 13 13 14 14 12 13 13 12 12 11 10 10 10
27 34 35 32 32 30 30 30 30 28 25 24 24 25 22 21 21 21 20 19 20 19 18 15 15 15 14 14 13 12 14 14 13 12 12 12 11 11
27 34 37 35 35 35 31 31 30 28 23 26 26 25 23 21 23 22 20 20 22 21 18 16 16 15 14 14 11 12 15 14 14 13 13 13 11 10
27 33 36 35 33 34 35 34 31 30 27 26 26 27 25 23 24 23 23 22 22 21 19 17 16 15 12 11 12 11 12 14 12 12 14 14 12 11
27 30 35 35 34 34 36 35 31 29 26 26 28 28 27 26 25 23 22 22 22 21 20 17 11 13 15 15 14 11 12 13 13 13 14 14 13 15
22 29 31 34 35 36 36 32 32 30 28 28 30 29 28 27 27 25 24 25 25 22 18 14 16 19 17 16 12 12 12 12 13 14 16 15 15 12
22 22 25 31 33 34 34 31 31 31 31 30 30 29 29 29 28 26 24 24 24 21 20 18 19 19 18 16 14 14 14 13 13 15 16 17 18 18
Wind_Direction
248 246 241 241 239 245 249 241 245 252 262 265 241 249 260 268 276 276 277 270 267 270 273 282 274 275 284 285 296 296 286 280 275 268 255 257 254 240
231 233 236 241 243 242 237 244 251 254 249 254 247 247 254 261 268 276 273 271 269 264 275 274 275 279 282 297 302 292 277 274 278 271 258 266 261 246
233 238 243 244 242 244 245 252 258 257 252 251 254 256 258 265 272 275 271 274 271 260 268 268 269 267 289 303 293 282 272 273 279 264 280 272 273 256
237 246 239 238 242 246 252 258 262 261 258 253 258 255 257 265 271 268 269 273 266 264 264 264 263 270 287 296 289 275 268 263 263 246 300 318 274 268
240 237 235 240 246 251 258 262 260 262 260 257 254 255 264 257 264 262 264 264 267 266 263 261 263 278 285 295 277 269 265 268 250 221 219 213 69 221
242 240 241 246 249 252 255 260 260 261 255 257 254 259 260 252 260 260 263 266 266 264 262 260 264 270 284 286 265 259 260 261 248 231 213 212 241 137
241 241 244 248 252 256 257 257 256 259 260 256 253 255 247 261 267 268 266 262 260 255 256 257 263 275 280 266 261 261 259 254 248 227 219 212 186 182
245 247 248 249 252 255 259 260 259 257 260 253 261 256 247 260 264 265 265 262 258 251 244 251 262 270 261 252 257 257 256 245 236 231 221 219 223 212
252 250 251 251 254 254 256 257 250 249 253 250 249 255 256 256 261 262 262 258 255 258 248 258 265 257 254 250 248 253 252 243 230 223 223 222 224 229
250 254 256 258 256 256 253 247 246 250 250 248 254 260 260 256 254 252 244 240 242 247 253 263 254 252 244 244 242 238 225 218 213 213 217 219 219 224
250 249 251 253 253 253 257 254 251 245 247 248 247 252 258 258 246 242 239 237 236 241 246 242 240 244 243 239 233 225 210 197 188 192 192 208 212 216
249 248 248 252 256 256 255 255 254 246 241 242 245 243 248 248 236 231 224 233 233 240 232 233 236 231 228 226 214 209 211 212 193 185 182 179 185 189
249 252 249 252 257 253 254 252 248 242 240 239 240 235 229 234 235 238 238 231 223 231 227 222 229 222 211 207 210 208 209 208 214 200 190 191 199 202
256 256 254 252 247 244 250 249 235 236 238 238 235 230 229 232 231 233 237 232 221 224 228 234 226 221 218 211 197 209 213 214 220 215 206 206 218 221
255 253 253 253 235 231 236 233 232 233 240 236 235 232 232 234 229 226 226 222 221 222 222 219 217 215 218 223 226 218 212 220 219 216 216 217 222 234
255 251 250 248 234 236 224 226 230 234 240 234 234 233 231 230 226 224 227 225 223 219 214 212 215 215 222 230 231 228 223 217 223 224 224 227 233 232
247 248 244 240 233 229 228 222 231 232 225 225 224 229 231 230 226 225 221 218 219 212 207 210 214 218 223 232 233 232 237 238 232 235 235 234 237 242
255 245 241 238 237 233 231 229 230 231 225 224 226 231 230 228 227 222 220 218 213 211 213 213 216 220 226 233 235 234 238 239 239 239 243 248 247 252
246 245 246 243 241 240 239 235 233 231 230 231 228 231 230 224 223 222 222 219 217 217 216 215 221 222 226 234 237 236 240 240 244 246 248 249 248 249
253 245 247 247 247 248 244 238 231 230 225 230 227 228 228 224 223 220 219 220 218 222 224 221 223 228 232 237 241 243 242 244 243 239 246 250 253 259
265 253 246 250 253 253 250 243 240 238 228 226 230 226 225 223 224 223 221 220 218 223 226 229 236 229 229 232 242 261 253 247 246 245 246 256 263 269
272 269 261 257 259 258 252 245 238 235 231 225 231 229 226 225 225 224 221 220 219 221 228 236 235 237 236 240 248 254 252 250 251 250 248 251 261 269
286 275 272 266 262 259 253 244 238 236 235 232 226 228 226 224 224 224 223 222 221 224 230 238 235 237 239 240 246 252 255 256 253 254 254 259 265 268
Height
1493 1494 1497 1500 1502 1504 1505 1506 1508 1509 1508 1510 1511 1511 1511 1513 1513 1513 1513 1512 1513 1512 1512 1512 1511 1511 1511 1511 1507 1507 1509 1508 1508 1505 1504 1505 1507 1507
1485 1490 1492 1496 1499 1500 1501 1503 1504 1504 1503 1504 1506 1507 1507 1509 1508 1510 1508 1507 1507 1506 1507 1507 1508 1509 1510 1507 1506 1504 1504 1505 1506 1502 1500 1500 1501 1501
1484 1487 1490 1492 1494 1496 1497 1498 1499 1499 1498 1499 1502 1502 1503 1504 1503 1503 1503 1502 1502 1501 1501 1501 1503 1502 1504 1503 1499 1501 1500 1501 1502 1501 1497 1496 1496 1496
1479 1482 1485 1486 1489 1491 1492 1493 1492 1495 1494 1494 1496 1497 1497 1498 1498 1497 1499 1497 1496 1496 1496 1498 1500 1498 1500 1499 1498 1496 1497 1496 1499 1497 1496 1496 1495 1494
1475 1476 1478 1480 1482 1484 1486 1486 1486 1488 1489 1489 1489 1490 1492 1492 1493 1492 1494 1492 1491 1490 1492 1491 1493 1494 1495 1495 1494 1496 1495 1494 1495 1494 1495 1495 1494 1492
1469 1471 1474 1475 1477 1478 1480 1482 1483 1482 1485 1484 1483 1485 1486 1488 1487 1489 1487 1488 1485 1486 1487 1489 1489 1488 1488 1489 1489 1490 1491 1491 1492 1491 1493 1494 1496 1495
1465 1467 1467 1470 1470 1472 1473 1473 1475 1476 1478 1478 1479 1478 1479 1483 1484 1485 1484 1482 1481 1482 1484 1485 1485 1486 1483 1485 1487 1487 1487 1488 1489 1488 1490 1492 1495 1497
1459 1461 1464 1463 1465 1465 1467 1467 1467 1467 1470 1475 1475 1474 1474 1477 1480 1477 1478 1480 1479 1476 1477 1480 1481 1482 1480 1479 1482 1482 1483 1484 1485 1486 1488 1490 1494 1496
1454 1456 1457 1458 1460 1460 1459 1461 1463 1462 1459 1465 1468 1470 1471 1469 1473 1473 1474 1474 1475 1478 1479 1479 1478 1475 1479 1480 1478 1478 1479 1481 1481 1483 1485 1488 1491 1493
1448 1449 1450 1451 1452 1452 1455 1456 1456 1457 1454 1456 1460 1467 1465 1464 1464 1467 1470 1469 1470 1474 1477 1478 1476 1471 1475 1477 1475 1475 1476 1478 1479 1481 1483 1486 1488 1490
1440 1441 1443 1444 1446 1446 1447 1446 1449 1451 1449 1450 1453 1458 1463 1463 1459 1464 1463 1465 1465 1469 1472 1474 1471 1473 1474 1473 1473 1474 1476 1476 1477 1480 1481 1483 1485 1488
1434 1433 1434 1435 1439 1436 1439 1439 1443 1445 1444 1449 1450 1446 1453 1458 1454 1456 1456 1463 1464 1462 1466 1471 1470 1472 1471 1469 1471 1472 1473 1475 1477 1479 1480 1482 1484 1487
1427 1427 1427 1427 1429 1430 1432 1433 1436 1441 1440 1443 1446 1443 1443 1450 1448 1455 1457 1457 1453 1458 1461 1463 1465 1468 1467 1467 1469 1470 1472 1474 1477 1477 1479 1481 1484 1485
1417 1419 1420 1420 1421 1421 1425 1429 1432 1433 1435 1437 1438 1438 1438 1442 1446 1447 1455 1458 1450 1454 1459 1460 1463 1464 1465 1466 1467 1468 1470 1472 1474 1476 1477 1480 1482 1483
1412 1411 1411 1413 1412 1414 1417 1422 1424 1428 1428 1434 1433 1434 1433 1440 1440 1445 1452 1449 1449 1451 1454 1458 1460 1461 1462 1463 1465 1466 1468 1470 1472 1473 1475 1477 1479 1480
1403 1402 1404 1405 1406 1404 1411 1413 1416 1418 1420 1428 1431 1432 1432 1433 1435 1442 1444 1445 1447 1449 1451 1455 1456 1457 1459 1460 1462 1464 1466 1467 1468 1470 1472 1473 1475 1477
1394 1395 1395 1396 1398 1400 1403 1404 1407 1412 1414 1419 1424 1427 1427 1428 1433 1437 1440 1440 1444 1446 1449 1451 1452 1453 1456 1458 1459 1461 1463 1464 1466 1468 1469 1470 1472 1473
1385 1385 1386 1388 1391 1393 1395 1399 1401 1404 1407 1413 1417 1418 1421 1424 1430 1433 1434 1436 1440 1444 1446 1447 1448 1450 1453 1455 1456 1457 1459 1460 1462 1464 1465 1466 1467 1468
1377 1377 1377 1378 1383 1385 1387 1391 1393 1397 1402 1405 1408 1411 1417 1420 1424 1426 1430 1432 1436 1440 1442 1443 1445 1446 1448 1450 1452 1453 1455 1456 1458 1459 1460 1461 1462 1464
1370 1369 1369 1372 1374 1378 1380 1383 1386 1390 1393 1396 1402 1406 1409 1413 1416 1420 1423 1427 1432 1435 1437 1438 1440 1442 1445 1447 1448 1450 1451 1452 1453 1454 1455 1456 1458 1459
1362 1363 1363 1365 1367 1370 1372 1376 1380 1382 1385 1389 1395 1399 1402 1407 1410 1414 1418 1423 1427 1430 1432 1434 1437 1438 1440 1442 1444 1446 1447 1447 1449 1450 1451 1452 1453 1453
1355 1354 1356 1358 1360 1362 1366 1369 1372 1375 1378 1382 1387 1392 1396 1400 1404 1408 1413 1416 1420 1424 1428 1431 1431 1432 1435 1437 1440 1441 1442 1443 1444 1445 1445 1447 1448 1448
1347 1347 1347 1349 1351 1354 1357 1359 1362 1366 1371 1375 1379 1384 1389 1393 1398 1402 1407 1411 1415 1419 1422 1424 1426 1427 1430 1432 1434 1436 1437 1438 1439 1439 1440 1441 1441 1442